Regional Weather Roundup
Issued by NWS

Home | Current Version | Previous Version | Graphics & Text | Print | Product List | Glossary Off
Versions: 1 2 3 4 5 6 7 8 9 10 11 12 13 14 15 16 17 18 19 20 21 22 23 24 25 26 27

000
ASUS45 KPSR 222210
RWRAZ

ARIZONA HOURLY REGIONAL WEATHER ROUNDUP
NATIONAL WEATHER SERVICE PHOENIX AZ
300 PM MST THU FEB 22 2018

NOTE: FAIR INDICATES FEW OR NO CLOUDS BELOW 12,000 FEET WITH NO
SIGNIFICANT WEATHER AND/OR OBSTRUCTIONS TO VISIBILITY.

AZZ001>003-036-222300-
NORTHWEST ARIZONA

CITY           SKY/WX    TMP DP  RH WIND       PRES   REMARKS
BULLHEAD CITY  MOSUNNY   63  10  13 S23G32    30.04S
KINGMAN        SUNNY     50  10  20 S28G40    30.03F
$$

AZZ004>008-015-016-018-222300-
NORTH CENTRAL ARIZONA

CITY           SKY/WX    TMP DP  RH WIND       PRES   REMARKS
GRAND CANYON   MOSUNNY   35  10  35 SW24G33   29.97F WCI  23
WILLIAMS       SUNNY     36   1  23 SW20G38   29.98F WCI  25
PRESCOTT       SUNNY     42   7  23 S20G26    30.05F
FLAGSTAFF      SUNNY     32   8  36 SW24G33   29.98F WCI  19
PAYSON         SUNNY     41   5  22 SW12      30.08F
PAGE           PTSUNNY   44   8  23 VRB5      29.97F
$$

AZZ009>014-017-222300-
NORTHEAST ARIZONA

CITY           SKY/WX    TMP DP  RH WIND       PRES   REMARKS
WINSLOW        SUNNY     48   3  15 SW21G31   30.01F
SAINT JOHNS    SUNNY     44  10  25 SW10G29   30.02F
WINDOW ROCK    SUNNY     39   9  29 S23G32    29.99F WCI  28
SHOW LOW       SUNNY     37  12  35 S21G32    30.06S WCI  27
$$

AZZ540-542>544-546-548-222300-
GREATER PHOENIX AREA

CITY           SKY/WX    TMP DP  RH WIND       PRES   REMARKS
PHOENIX        MOSUNNY   61  21  21 W10       30.13F
BUCKEYE        MOSUNNY   57  25  28 S8G16     30.15F
GLENDALE       MOSUNNY   61  23  23 S13G20    30.16F
LUKE AFB       SUNNY     61  24  24 S13       30.12F
DEER VALLEY    MOSUNNY   56  19  23 MISG      30.13F
SCOTTSDALE     SUNNY     58  16  19 VRB7      30.15F
MESA-FALCON    SUNNY     57  21  24 SE7G16    30.15F
MESA-GATEWAY   MOSUNNY   57  21  24 SW6       30.16F
CHANDLER       MOSUNNY   61  21  21 SW8       30.15F
$$

AZZ539-553-222300-
SOUTHWEST MARICOPA COUNTY AND PINAL COUNTY

CITY           SKY/WX    TMP DP  RH WIND       PRES   REMARKS
CASA GRANDE    NOT AVBL
GILA BEND      MOSUNNY   61  21  21 SW10      30.13F
$$

AZZ503-504-507>509-222300-
SOUTHEAST ARIZONA

CITY           SKY/WX    TMP DP  RH WIND       PRES   REMARKS
TUCSON         SUNNY     56  17  21 SE3       30.16F
DAVIS-MONTHAN  SUNNY     57  17  20 SW6       30.14F
RYAN FIELD     SUNNY     57  19  23 W10       30.15F
NOGALES        SUNNY     55  16  21 SW3       30.12F
SIERRA VISTA   SUNNY     55  13  19 W12G18    30.12F
DOUGLAS        SUNNY     56  17  21 W12G20    30.11F
SAFFORD        SUNNY     55  13  18 SW7       30.11F
$$

AZZ532-222300-
SOUTHWEST ARIZONA

CITY           SKY/WX    TMP DP  RH WIND       PRES   REMARKS
YUMA           SUNNY     63  23  21 W10       30.15F
$$

CAZ041-043-047-048-061-525>527-560>570-222300-
SOUTHERN CALIFORNIA

CITY           SKY/WX    TMP DP  RH WIND       PRES   REMARKS
DOWNTOWN L.A.  SUNNY     59  37  44 MISG      30.18F
L.A. AIRPORT   MOSUNNY   58  42  55 W17       30.19F
SAN DIEGO      LGT RAIN  55  50  83 SW12G28   30.24F
BURBANK        CLOUDY    57  36  45 S13       30.15F
ONTARIO        PTSUNNY   56  36  47 SW14      30.16F
RIVERSIDE      PTSUNNY   56  35  45 SW9       30.16F
PALM SPRINGS   MOSUNNY   64  28  25 E10       30.11F
EL CENTRO NAS  PTSUNNY   68  26  20 W26       30.16F
IMPERIAL       PTSUNNY   67  29  24 SW18G24   30.12F
BLYTHE         PTSUNNY   64  27  24 SW20G28   30.12F
NEEDLES        SUNNY     64  13  13 S16G28    30.06F
$$

NVZ020-UTZ003-222300-
SOUTHERN NEVADA-UTAH

CITY           SKY/WX    TMP DP  RH WIND       PRES   REMARKS
LAS VEGAS      MOSUNNY   54  17  23 SW13G29   29.96F
SALT LAKE CITY CLOUDY    37  14  38 S15       29.92S WCI  28
$$

NMZ009-TXZ055-222300-
NEW MEXICO-WEST TEXAS

CITY           SKY/WX    TMP DP  RH WIND       PRES   REMARKS
ALBUQUERQUE    MOSUNNY   46  14  27 W22       30.02F
EL PASO        MOSUNNY   62  20  19 W23G31    30.05F
$$


........................KEY........................
SKY/WX - SKY CONDITION/WEATHER
TMP    - TEMPERATURE IN FAHRENHEIT
DP     - DEW POINT IN FAHRENHEIT
RH     - RELATIVE HUMIDITY IN PERCENT
WIND   - DIRECTION AND SPEED IN MILES PER HOUR (MPH)
VRB    - VARIABLE WIND DIRECTION
PRES   - MEAN SEA LEVEL PRESSURE IN INCHES OF MERCURY
         F - FALLING PRESSURE   R - RISING PRESSURE
         S - STEADY PRESSURE
VSB    - VISIBILITY IN MILES
HX     - HEAT INDEX IN FAHRENHEIT
WCI    - WIND CHILL INDEX IN FAHRENHEIT
TC     - TEMPERATURE IN CELSIUS WHICH IS ALSO KNOWN AS
         TEMPERATURE IN CENTIGRADE
AFB    - AIR FORCE BASE
         LUKE AFB IS LUKE AIR FORCE BASE
         DAVIS-MONTHAN IS DAVIS-MONTHAN AIR FORCE BASE
NAS    - NAVAL AIR STATION
         EL CENTRO NAS IS EL CENTRO NAVAL AIR STATION
N/A    - NOT AVAILABLE





USA.gov is the U.S. government's official web portal to all federal, state and local government web resources and services.